Retour au catalogue

PELICAN-8 300F

ActifScienceSSO
NORAD 69018·PAYLOAD·🇺🇸 United States

Lancé May 3, 2026 depuis Vandenberg Space Force Base

Loading…

Prochains Passages (prochaines 24 heures)

TLE

FraisSource: CelesTrak SupGP

Époque: Sep 15, 2026, 03:24 UTC

1 69018C 26100R   26258.14196759  .00010232  00000+0  38634-3 0  2580
2 69018  97.3175 154.4766 0003829 112.9456  22.3419 15.27065616    12

Suivez PELICAN-8 300F en temps réel avec AllMySat

Download on the App Store